Regional Weather Roundup
Issued by NWS State College, PA

Home | Current Version | Previous Version | Graphics & Text | Print | Product List | Glossary On
Versions: 1 2 3 4 5 6 7 8 9 10 11 12 13 14 15 16 17 18 19 20 21 22 23 24 25 26 27 28 29 30 31 32 33 34 35 36 37 38 39 40 41 42 43 44 45 46 47 48 49 50
000
ASUS41 KCTP 241310
RWRCTP

REGIONAL WEATHER ROUNDUP
NATIONAL WEATHER SERVICE STATE COLLEGE PA
900 AM EDT FRI OCT 24 2014

Note: "fair" indicates few or no clouds below 12,000 feet with no
significant weather and/or obstructions to visibility.

* = STATION THAT DOES NOT REPORT PRECIPITATION /E.G. RAIN...SNOW...ETC/
    THUNDER OR FOG.

PAZ002>004-007>009-013>016-020>023-029>032-241400-
WESTERN PENNSYLVANIA

CITY           SKY/WX    TMP DP  RH WIND       PRES   REMARKS
ERIE           PTSUNNY   44  41  89 S5        30.08R
MEADVILLE      FOG       40  39  97 SW6       30.07S VSB<1/4
FRANKLIN*      CLOUDY    41  37  87 SW8       30.09R VSB<1/4
NEW CASTLE       N/A     38  38 100 CALM      30.11S FOG
BEAVER COUNTY  PTSUNNY   41  39  93 CALM      30.10R
BUTLER*        CLOUDY    43  39  87 SW7       30.13R
PITTSBURGH INT CLOUDY    41  38  89 CALM      30.10S
PITTSBURGH     PTSUNNY   44  37  76 W3        30.11R
INDIANA*       CLOUDY    45  43  93 W5        30.12S FOG
LATROBE        CLOUDY   N/A N/A N/A W8        30.12R
WASHINGTON CO* CLOUDY    37  36  93 CALM      30.12S
$$

PAZ004>006-010>012-017>019-024>028-033>037-041-042-045-046-049>053-241400-
CENTRAL PENNSYLVANIA

CITY           SKY/WX    TMP DP  RH WIND       PRES   REMARKS
BRADFORD       SUNNY     43  39  86 NW8       30.03R
DUBOIS         MOSUNNY   44  42  93 W5        30.04S
CLEARFIELD     MOSUNNY   47  39  74 W7        30.04R
JOHNSTOWN      MOSUNNY   43  38  82 W8        30.05S
ALTOONA        MOSUNNY   47  40  76 NW6       30.04R
STATE COLLEGE  MOSUNNY   48  39  71 W8        30.03R
WILLIAMSPORT   MOSUNNY   54  41  61 W13       29.94R
SELINSGROVE    MOSUNNY   56  42  59 NW9       29.95R
FT INDIANTOWN  SUNNY     57  46  67 W8        29.93R
CAPITAL CITY   MOSUNNY   56  43  61 W10       29.95R
HARRISBURG     PTSUNNY   56  43  61 NW15      29.94R
YORK           SUNNY     55  42  61 NW16      29.95R
$$

PAZ038>040-043-044-047-048-054-055-060>062-067>071-241400-
EASTERN PENNSYLVANIA

CITY           SKY/WX    TMP DP  RH WIND       PRES   REMARKS
SCRANTON       CLOUDY    51  42  71 NW9       29.91S
MOUNT POCONO   PTSUNNY   48  40  73 NW16G29   29.83R
ALLENTOWN      MOSUNNY   54  42  64 NW15G29   29.88R
QUAKERTOWN*    PTSUNNY   55  43  62 N7        29.88R
READING        PTSUNNY   58  44  60 NW9       29.89S
LANCASTER      SUNNY     55  43  63 NW16G24   29.91R
COATESVILLE    CLOUDY    55  46  71 NW9       29.90R
POTTSTOWN      SUNNY     56  44  64 N13G18    29.88S
BLUE BELL      CLOUDY    59  45  58 N5        29.86R
DOYLESTOWN     CLOUDY    54  43  66 N12G21    29.86R
WILLOW GROVE   NOT AVBL
NORTH PHILA    PTSUNNY   57  42  57 N13G25    29.87R
PHILADELPHIA   MOSUNNY   58  44  60 NW14      29.87R
$$



USA.gov is the U.S. government's official web portal to all federal, state and local government web resources and services.